Time,TemperatureF,DewpointF,PressureIn,WindDirection,WindDirectionDegrees,WindSpeedMPH,WindSpeedGustMPH,Humidity,HourlyPrecipIn,Conditions,Clouds,dailyrainin,SoftwareType,DateUTC
2013-07-05 00:01:00,59.2,56.3,30.01,ESE,117,1.0,2.0,90,0.00,,CLR,0.00,VWS V14.01,2013-07-05 04:01:00,
2013-07-05 00:02:00,59.2,56.3,30.01,ESE,117,0.0,0.0,90,0.00,,CLR,0.00,VWS V14.01,2013-07-05 04:02:00,
2013-07-05 00:07:00,59.1,56.2,30.01,ESE,117,1.0,1.0,90,0.00,,CLR,0.00,VWS V14.01,2013-07-05 04:07:00,
2013-07-05 00:12:00,59.0,56.1,30.01,ESE,117,2.0,2.0,90,0.00,,CLR,0.00,VWS V14.01,2013-07-05 04:12:00,
2013-07-05 00:17:00,58.8,56.2,30.01,ESE,117,1.0,2.0,91,0.00,,CLR,0.00,VWS V14.01,2013-07-05 04:17:00,
2013-07-05 00:22:00,58.8,56.2,30.01,ESE,117,1.0,1.0,91,0.00,,CLR,0.00,VWS V14.01,2013-07-05 04:22:00,
2013-07-05 00:27:00,58.8,56.2,30.01,ESE,117,2.0,3.0,91,0.00,,CLR,0.00,VWS V14.01,2013-07-05 04:27:00,
2013-07-05 00:32:00,58.8,56.2,30.01,ESE,117,0.0,1.0,91,0.00,,CLR,0.00,VWS V14.01,2013-07-05 04:32:00,
2013-07-05 00:37:00,58.8,56.5,30.01,ESE,121,2.0,2.0,92,0.00,,CLR,0.00,VWS V14.01,2013-07-05 04:37:00,
2013-07-05 00:42:00,58.9,56.6,30.01,ESE,121,2.0,2.0,92,0.00,,CLR,0.00,VWS V14.01,2013-07-05 04:42:00,
2013-07-05 00:47:00,59.0,56.7,30.01,ESE,122,2.0,3.0,92,0.00,,CLR,0.00,VWS V14.01,2013-07-05 04:47:00,
2013-07-05 00:52:00,59.1,56.8,30.01,ESE,122,1.0,2.0,92,0.00,,CLR,0.00,VWS V14.01,2013-07-05 04:52:00,
2013-07-05 00:57:00,59.2,56.6,30.01,ESE,122,2.0,2.0,91,0.00,,CLR,0.00,VWS V14.01,2013-07-05 04:57:00,
2013-07-05 01:02:00,59.1,56.5,30.01,ESE,122,1.0,1.0,91,0.00,,CLR,0.00,VWS V14.01,2013-07-05 05:02:00,
2013-07-05 01:07:00,59.0,56.1,30.01,ESE,122,0.0,1.0,90,0.00,,CLR,0.00,VWS V14.01,2013-07-05 05:07:00,
2013-07-05 01:12:00,58.9,56.0,30.01,ESE,122,0.0,1.0,90,0.00,,CLR,0.00,VWS V14.01,2013-07-05 05:12:00,
2013-07-05 01:17:00,58.9,56.3,30.01,ESE,122,2.0,2.0,91,0.00,,CLR,0.00,VWS V14.01,2013-07-05 05:17:00,
2013-07-05 01:22:00,58.8,56.2,30.01,ESE,122,2.0,2.0,91,0.00,,CLR,0.00,VWS V14.01,2013-07-05 05:22:00,
2013-07-05 01:27:00,58.8,56.5,30.01,ESE,122,0.0,1.0,92,0.00,,CLR,0.00,VWS V14.01,2013-07-05 05:27:00,
2013-07-05 01:32:00,58.7,56.1,30.01,ESE,122,1.0,1.0,91,0.00,,CLR,0.00,VWS V14.01,2013-07-05 05:32:00,
2013-07-05 01:37:00,58.7,56.4,30.01,ESE,122,1.0,1.0,92,0.00,,CLR,0.00,VWS V14.01,2013-07-05 05:37:00,
2013-07-05 01:42:00,58.7,56.4,30.01,ESE,122,1.0,1.0,92,0.00,,CLR,0.00,VWS V14.01,2013-07-05 05:42:00,
2013-07-05 01:47:00,58.7,56.4,30.01,ESE,122,0.0,1.0,92,0.00,,CLR,0.00,VWS V14.01,2013-07-05 05:47:00,
2013-07-05 01:52:00,58.6,56.3,30.01,ESE,122,1.0,2.0,92,0.00,,CLR,0.00,VWS V14.01,2013-07-05 05:52:00,
2013-07-05 01:57:00,58.7,56.4,30.01,ESE,122,1.0,1.0,92,0.00,,CLR,0.00,VWS V14.01,2013-07-05 05:57:00,
2013-07-05 02:02:00,58.7,56.4,30.01,ESE,122,1.0,2.0,92,0.00,,CLR,0.00,VWS V14.01,2013-07-05 06:02:00,
2013-07-05 02:08:00,58.7,56.4,30.01,ESE,121,0.0,0.0,92,0.00,,CLR,0.00,VWS V14.01,2013-07-05 06:08:00,
2013-07-05 02:13:00,58.7,56.7,30.01,ESE,122,1.0,1.0,93,0.00,,CLR,0.00,VWS V14.01,2013-07-05 06:13:00,
2013-07-05 02:18:00,58.8,56.8,30.01,ESE,122,2.0,3.0,93,0.00,,CLR,0.00,VWS V14.01,2013-07-05 06:18:00,
2013-07-05 02:23:00,58.8,56.5,30.01,ESE,122,0.0,0.0,92,0.00,,CLR,0.00,VWS V14.01,2013-07-05 06:23:00,
2013-07-05 02:28:00,58.7,56.4,30.01,ESE,122,0.0,1.0,92,0.00,,CLR,0.00,VWS V14.01,2013-07-05 06:28:00,
2013-07-05 02:33:00,58.6,56.3,30.01,ESE,122,0.0,1.0,92,0.00,,CLR,0.00,VWS V14.01,2013-07-05 06:33:00,
2013-07-05 02:38:00,58.6,56.6,30.01,ESE,122,1.0,1.0,93,0.00,,CLR,0.00,VWS V14.01,2013-07-05 06:38:00,
2013-07-05 02:43:00,58.6,56.9,30.01,ESE,122,1.0,1.0,94,0.00,,CLR,0.00,VWS V14.01,2013-07-05 06:43:00,
2013-07-05 02:48:00,58.6,56.9,30.01,ESE,122,2.0,2.0,94,0.00,,CLR,0.00,VWS V14.01,2013-07-05 06:48:00,
2013-07-05 02:53:00,58.7,57.0,30.01,ESE,122,1.0,2.0,94,0.00,,CLR,0.00,VWS V14.01,2013-07-05 06:53:00,
2013-07-05 02:58:00,58.7,56.7,30.01,ESE,122,0.0,1.0,93,0.00,,CLR,0.00,VWS V14.01,2013-07-05 06:58:00,
2013-07-05 03:03:00,58.6,56.6,30.00,ESE,122,0.0,1.0,93,0.00,,CLR,0.00,VWS V14.01,2013-07-05 07:03:00,
2013-07-05 03:08:00,58.6,56.6,30.01,ESE,122,0.0,0.0,93,0.00,,CLR,0.00,VWS V14.01,2013-07-05 07:08:00,
2013-07-05 03:13:00,58.5,56.5,30.00,ESE,122,0.0,1.0,93,0.00,,CLR,0.00,VWS V14.01,2013-07-05 07:13:00,
2013-07-05 03:18:00,58.4,56.4,30.00,ESE,122,1.0,1.0,93,0.00,,CLR,0.00,VWS V14.01,2013-07-05 07:18:00,
2013-07-05 03:23:00,58.4,56.4,30.01,ESE,122,1.0,1.0,93,0.00,,CLR,0.00,VWS V14.01,2013-07-05 07:23:00,
2013-07-05 03:28:00,58.3,56.3,30.01,ESE,122,0.0,0.0,93,0.00,,CLR,0.00,VWS V14.01,2013-07-05 07:28:00,
2013-07-05 03:33:00,58.2,56.2,30.01,ESE,122,0.0,0.0,93,0.00,,CLR,0.00,VWS V14.01,2013-07-05 07:33:00,
2013-07-05 03:38:00,58.1,56.1,30.01,ESE,122,1.0,1.0,93,0.00,,CLR,0.00,VWS V14.01,2013-07-05 07:38:00,
2013-07-05 03:43:00,58.0,56.0,30.01,ESE,122,0.0,1.0,93,0.00,,CLR,0.00,VWS V14.01,2013-07-05 07:43:00,
2013-07-05 03:48:00,58.0,56.3,30.01,ESE,122,0.0,0.0,94,0.00,,CLR,0.00,VWS V14.01,2013-07-05 07:48:00,
2013-07-05 03:53:00,57.8,56.1,30.00,ESE,122,0.0,0.0,94,0.00,,CLR,0.00,VWS V14.01,2013-07-05 07:53:00,
2013-07-05 03:58:00,57.8,55.8,30.00,ESE,122,0.0,0.0,93,0.00,,CLR,0.00,VWS V14.01,2013-07-05 07:58:00,
2013-07-05 04:03:00,57.7,56.0,30.00,ESE,122,1.0,1.0,94,0.00,,CLR,0.00,VWS V14.01,2013-07-05 08:03:00,
2013-07-05 04:08:00,57.7,56.0,30.00,ESE,122,0.0,0.0,94,0.00,,CLR,0.00,VWS V14.01,2013-07-05 08:08:00,
2013-07-05 04:13:00,57.6,55.9,30.00,ESE,122,1.0,1.0,94,0.00,,CLR,0.00,VWS V14.01,2013-07-05 08:13:00,
2013-07-05 04:18:00,57.6,55.9,30.00,ESE,122,1.0,2.0,94,0.00,,CLR,0.00,VWS V14.01,2013-07-05 08:18:00,
2013-07-05 04:23:00,57.5,55.8,30.00,ESE,122,1.0,2.0,94,0.00,,CLR,0.00,VWS V14.01,2013-07-05 08:23:00,
2013-07-05 04:28:00,57.9,56.5,30.00,SSE,165,0.0,1.0,95,0.00,,CLR,0.00,VWS V14.01,2013-07-05 08:28:00,
2013-07-05 04:33:00,58.2,56.8,30.00,SSE,165,1.0,1.0,95,0.00,,CLR,0.00,VWS V14.01,2013-07-05 08:33:00,
2013-07-05 04:38:00,58.5,57.1,30.00,SSE,152,1.0,2.0,95,0.00,,CLR,0.00,VWS V14.01,2013-07-05 08:38:00,
2013-07-05 04:43:00,59.0,57.6,30.00,SSE,150,1.0,1.0,95,0.00,,CLR,0.00,VWS V14.01,2013-07-05 08:43:00,
2013-07-05 04:48:00,59.4,58.0,30.00,ESE,109,2.0,2.0,95,0.00,,CLR,0.00,VWS V14.01,2013-07-05 08:48:00,
2013-07-05 04:53:00,59.9,58.2,30.00,SSE,152,1.0,1.0,94,0.00,,CLR,0.00,VWS V14.01,2013-07-05 08:53:00,
2013-07-05 04:58:00,60.4,58.4,30.00,South,169,3.0,3.0,93,0.00,,CLR,0.00,VWS V14.01,2013-07-05 08:58:00,
2013-07-05 05:04:00,60.8,58.8,30.00,SE,140,2.0,3.0,93,0.00,,SCT090,0.00,VWS V14.01,2013-07-05 09:04:00,
2013-07-05 05:09:00,61.2,58.9,30.00,South,182,1.0,2.0,92,0.00,,SCT090,0.00,VWS V14.01,2013-07-05 09:09:00,
2013-07-05 05:14:00,61.5,58.8,30.00,South,185,2.0,3.0,91,0.00,,SCT090,0.00,VWS V14.01,2013-07-05 09:14:00,
2013-07-05 05:19:00,61.7,58.7,30.00,ESE,114,3.0,3.0,90,0.00,,SCT090,0.00,VWS V14.01,2013-07-05 09:19:00,
2013-07-05 05:24:00,61.4,58.5,30.00,ESE,116,2.0,2.0,90,0.00,,SCT090,0.00,VWS V14.01,2013-07-05 09:24:00,
2013-07-05 05:29:00,61.2,58.2,30.00,SE,125,3.0,3.0,90,0.00,,SCT090,0.00,VWS V14.01,2013-07-05 09:29:00,
2013-07-05 05:34:00,61.0,58.0,30.00,SE,125,3.0,3.0,90,0.00,,SCT090,0.00,VWS V14.01,2013-07-05 09:34:00,
2013-07-05 05:39:00,60.4,57.5,30.00,ESE,117,2.0,2.0,90,0.00,,SCT090,0.00,VWS V14.01,2013-07-05 09:39:00,
2013-07-05 05:44:00,60.2,57.6,30.00,ESE,119,1.0,2.0,91,0.00,,SCT090,0.00,VWS V14.01,2013-07-05 09:44:00,
2013-07-05 05:50:00,60.2,57.9,30.00,ESE,119,0.0,0.0,92,0.00,,SCT090,0.00,VWS V14.01,2013-07-05 09:50:00,
2013-07-05 05:55:00,60.1,57.5,30.00,ESE,119,1.0,2.0,91,0.00,,SCT090,0.00,VWS V14.01,2013-07-05 09:55:00,
2013-07-05 06:00:00,59.9,57.3,30.00,ESE,119,1.0,1.0,91,0.00,,SCT090,0.00,VWS V14.01,2013-07-05 10:00:00,
2013-07-05 06:05:00,59.7,57.4,30.00,ESE,113,0.0,0.0,92,0.00,,SCT090,0.00,VWS V14.01,2013-07-05 10:05:00,
2013-07-05 06:10:00,59.6,57.3,30.00,ESE,113,0.0,1.0,92,0.00,,SCT090,0.00,VWS V14.01,2013-07-05 10:10:00,
2013-07-05 06:15:00,59.5,57.5,30.00,ESE,113,1.0,2.0,93,0.00,,SCT090,0.00,VWS V14.01,2013-07-05 10:15:00,
2013-07-05 06:21:00,59.4,57.4,30.00,ESE,113,1.0,1.0,93,0.00,,SCT090,0.00,VWS V14.01,2013-07-05 10:21:00,
2013-07-05 06:26:00,59.3,57.3,30.00,ESE,113,0.0,1.0,93,0.00,,SCT090,0.00,VWS V14.01,2013-07-05 10:26:00,
2013-07-05 06:31:00,59.3,57.6,30.00,ESE,113,0.0,0.0,94,0.00,,SCT090,0.00,VWS V14.01,2013-07-05 10:31:00,
2013-07-05 06:36:00,59.4,57.7,30.00,ESE,119,2.0,2.0,94,0.00,,SCT090,0.00,VWS V14.01,2013-07-05 10:36:00,
2013-07-05 06:41:00,59.5,57.8,30.00,ESE,119,1.0,2.0,94,0.00,,SCT090,0.00,VWS V14.01,2013-07-05 10:41:00,
2013-07-05 06:46:00,59.7,58.3,30.00,ESE,112,2.0,2.0,95,0.00,,SCT090,0.00,VWS V14.01,2013-07-05 10:46:00,
2013-07-05 06:51:00,60.0,58.6,30.01,ESE,112,0.0,0.0,95,0.00,,SCT090,0.00,VWS V14.01,2013-07-05 10:51:00,
2013-07-05 06:56:00,60.1,58.7,30.01,ESE,112,0.0,0.0,95,0.00,,SCT090,0.00,VWS V14.01,2013-07-05 10:56:00,
2013-07-05 07:02:00,60.2,58.8,30.01,SE,130,1.0,1.0,95,0.00,,SCT090,0.00,VWS V14.01,2013-07-05 11:02:00,
2013-07-05 07:07:00,60.4,59.0,30.01,SE,130,0.0,1.0,95,0.00,,BKN090,0.00,VWS V14.01,2013-07-05 11:07:00,
2013-07-05 07:12:00,60.5,58.8,30.01,SE,130,0.0,0.0,94,0.00,,BKN090,0.00,VWS V14.01,2013-07-05 11:12:00,
2013-07-05 07:17:00,60.7,59.0,30.01,SE,130,1.0,1.0,94,0.00,,BKN090,0.00,VWS V14.01,2013-07-05 11:17:00,
2013-07-05 07:22:00,60.9,59.2,30.01,SE,130,0.0,0.0,94,0.00,,BKN090,0.00,VWS V14.01,2013-07-05 11:22:00,
2013-07-05 07:27:00,61.1,59.4,30.01,SE,130,0.0,0.0,94,0.00,,BKN090,0.00,VWS V14.01,2013-07-05 11:27:00,
2013-07-05 07:32:00,61.3,59.6,30.01,SE,130,0.0,0.0,94,0.00,,BKN090,0.00,VWS V14.01,2013-07-05 11:32:00,
2013-07-05 07:37:00,61.9,60.5,30.01,SE,130,1.0,2.0,95,0.00,,BKN090,0.00,VWS V14.01,2013-07-05 11:37:00,
2013-07-05 07:42:00,62.9,61.2,30.01,ESE,114,2.0,2.0,94,0.00,,BKN090,0.00,VWS V14.01,2013-07-05 11:42:00,
2013-07-05 07:47:00,64.0,61.9,30.01,ESE,122,2.0,3.0,93,0.00,,BKN090,0.00,VWS V14.01,2013-07-05 11:47:00,
2013-07-05 07:52:00,64.8,62.1,30.01,ESE,119,2.0,2.0,91,0.00,,BKN090,0.00,VWS V14.01,2013-07-05 11:52:00,
2013-07-05 07:57:00,65.3,62.3,30.01,SE,134,1.0,2.0,90,0.00,,BKN090,0.00,VWS V14.01,2013-07-05 11:57:00,
2013-07-05 08:02:00,66.0,63.0,30.01,SSE,160,2.0,2.0,90,0.00,,BKN090,0.00,VWS V14.01,2013-07-05 12:02:00,
2013-07-05 08:07:00,66.8,63.1,30.01,South,186,2.0,3.0,88,0.00,,OVC100,0.00,VWS V14.01,2013-07-05 12:07:00,
2013-07-05 08:12:00,67.7,63.4,30.01,SSW,192,3.0,4.0,86,0.00,,OVC100,0.00,VWS V14.01,2013-07-05 12:12:00,
2013-07-05 08:17:00,68.4,63.4,30.01,SSW,212,1.0,2.0,84,0.00,,OVC100,0.00,VWS V14.01,2013-07-05 12:17:00,
2013-07-05 08:22:00,68.8,63.4,30.02,SW,221,1.0,3.0,83,0.00,,OVC100,0.00,VWS V14.01,2013-07-05 12:22:00,
2013-07-05 08:27:00,69.3,63.6,30.02,WSW,244,2.0,2.0,82,0.00,,OVC100,0.00,VWS V14.01,2013-07-05 12:27:00,
2013-07-05 08:32:00,69.7,64.0,30.02,SW,223,1.0,2.0,82,0.00,,OVC100,0.00,VWS V14.01,2013-07-05 12:32:00,
2013-07-05 08:37:00,70.1,64.0,30.02,SW,235,4.0,4.0,81,0.00,,OVC100,0.00,VWS V14.01,2013-07-05 12:37:00,
2013-07-05 08:43:00,70.8,64.3,30.02,SW,234,4.0,4.0,80,0.00,,OVC100,0.00,VWS V14.01,2013-07-05 12:43:00,
2013-07-05 08:48:00,71.2,64.0,30.02,SSW,207,2.0,3.0,78,0.00,,OVC100,0.00,VWS V14.01,2013-07-05 12:48:00,
2013-07-05 08:53:00,71.3,63.7,30.02,SW,226,3.0,4.0,77,0.00,,OVC100,0.00,VWS V14.01,2013-07-05 12:53:00,
2013-07-05 08:58:00,71.2,63.6,30.02,SSW,206,0.0,1.0,77,0.00,,OVC100,0.00,VWS V14.01,2013-07-05 12:58:00,
2013-07-05 09:03:00,71.1,64.3,30.03,SW,221,1.0,2.0,79,0.00,,OVC100,0.00,VWS V14.01,2013-07-05 13:03:00,
2013-07-05 09:08:00,71.3,64.8,30.02,SSE,163,2.0,2.0,80,0.00,,CLR,0.00,VWS V14.01,2013-07-05 13:08:00,
2013-07-05 09:13:00,71.7,64.1,30.02,ESE,123,1.0,2.0,77,0.00,,CLR,0.00,VWS V14.01,2013-07-05 13:13:00,
2013-07-05 09:18:00,72.0,64.0,30.02,SSW,195,3.0,3.0,76,0.00,,CLR,0.00,VWS V14.01,2013-07-05 13:18:00,
2013-07-05 09:23:00,72.5,64.5,30.02,South,190,1.0,2.0,76,0.00,,CLR,0.00,VWS V14.01,2013-07-05 13:23:00,
2013-07-05 09:28:00,72.8,64.0,30.02,West,276,4.0,6.0,74,0.00,,CLR,0.00,VWS V14.01,2013-07-05 13:28:00,
2013-07-05 09:33:00,73.1,63.9,30.02,WSW,242,4.0,4.0,73,0.00,,CLR,0.00,VWS V14.01,2013-07-05 13:33:00,
2013-07-05 09:38:00,73.7,64.5,30.02,SW,225,3.0,4.0,73,0.00,,CLR,0.00,VWS V14.01,2013-07-05 13:38:00,
2013-07-05 09:43:00,74.3,64.7,30.02,WSW,252,3.0,4.0,72,0.00,,CLR,0.00,VWS V14.01,2013-07-05 13:43:00,
2013-07-05 09:48:00,74.7,64.7,30.02,SW,219,4.0,4.0,71,0.00,,CLR,0.00,VWS V14.01,2013-07-05 13:48:00,
2013-07-05 09:53:00,74.9,64.5,30.02,WSW,248,3.0,5.0,70,0.00,,CLR,0.00,VWS V14.01,2013-07-05 13:53:00,
2013-07-05 09:58:00,75.2,64.8,30.02,SW,223,5.0,7.0,70,0.00,,CLR,0.00,VWS V14.01,2013-07-05 13:58:00,
2013-07-05 10:03:00,75.6,64.7,30.02,SW,219,3.0,4.0,69,0.00,,FEW090,0.00,VWS V14.01,2013-07-05 14:03:00,
2013-07-05 10:08:00,76.2,64.9,30.02,West,268,3.0,4.0,68,0.00,,FEW090,0.00,VWS V14.01,2013-07-05 14:08:00,
2013-07-05 10:13:00,76.9,63.8,30.02,SW,229,6.0,7.0,64,0.00,,FEW090,0.00,VWS V14.01,2013-07-05 14:13:00,
2013-07-05 10:18:00,77.3,64.2,30.02,SW,221,3.0,4.0,64,0.00,,FEW090,0.00,VWS V14.01,2013-07-05 14:18:00,
2013-07-05 10:23:00,77.8,66.0,30.02,West,274,1.0,2.0,67,0.00,,FEW090,0.00,VWS V14.01,2013-07-05 14:23:00,
2013-07-05 10:29:00,78.2,64.6,30.02,West,263,2.0,3.0,63,0.00,,FEW090,0.00,VWS V14.01,2013-07-05 14:29:00,
2013-07-05 10:34:00,78.5,64.4,30.02,West,269,4.0,7.0,62,0.00,,FEW090,0.00,VWS V14.01,2013-07-05 14:34:00,
2013-07-05 10:39:00,78.7,65.1,30.02,WNW,287,2.0,4.0,63,0.00,,FEW090,0.00,VWS V14.01,2013-07-05 14:39:00,
2013-07-05 10:44:00,79.0,65.3,30.02,WNW,303,3.0,7.0,63,0.00,,FEW090,0.00,VWS V14.01,2013-07-05 14:44:00,
2013-07-05 10:49:00,79.2,64.6,30.02,WSW,250,8.0,9.0,61,0.00,,FEW090,0.00,VWS V14.01,2013-07-05 14:49:00,
2013-07-05 10:54:00,78.9,64.8,30.02,SW,223,6.0,6.0,62,0.00,,FEW090,0.00,VWS V14.01,2013-07-05 14:54:00,
2013-07-05 10:59:00,79.2,64.6,30.02,WNW,287,7.0,8.0,61,0.00,,FEW090,0.00,VWS V14.01,2013-07-05 14:59:00,
2013-07-05 11:04:00,79.2,65.1,30.02,SSW,196,3.0,6.0,62,0.00,,CLR,0.00,VWS V14.01,2013-07-05 15:04:00,
2013-07-05 11:09:00,79.2,64.6,30.02,WSW,243,4.0,7.0,61,0.00,,CLR,0.00,VWS V14.01,2013-07-05 15:09:00,
2013-07-05 11:14:00,79.4,64.8,30.02,NW,315,6.0,6.0,61,0.00,,CLR,0.00,VWS V14.01,2013-07-05 15:14:00,
2013-07-05 11:19:00,79.6,64.5,30.01,West,271,10.0,10.0,60,0.00,,CLR,0.00,VWS V14.01,2013-07-05 15:19:00,
2013-07-05 11:24:00,79.7,64.6,30.01,WNW,299,7.0,8.0,60,0.00,,CLR,0.00,VWS V14.01,2013-07-05 15:24:00,
2013-07-05 11:29:00,79.9,64.8,30.01,SW,218,3.0,3.0,60,0.00,,CLR,0.00,VWS V14.01,2013-07-05 15:29:00,
2013-07-05 11:34:00,80.2,65.1,30.01,WSW,244,6.0,10.0,60,0.00,,CLR,0.00,VWS V14.01,2013-07-05 15:34:00,
2013-07-05 11:39:00,80.5,64.9,30.01,NW,314,5.0,9.0,59,0.00,,CLR,0.00,VWS V14.01,2013-07-05 15:39:00,
2013-07-05 11:44:00,80.4,64.8,30.01,WSW,256,2.0,4.0,59,0.00,,CLR,0.00,VWS V14.01,2013-07-05 15:44:00,
2013-07-05 11:49:00,80.7,65.1,30.01,WNW,293,5.0,5.0,59,0.00,,CLR,0.00,VWS V14.01,2013-07-05 15:49:00,
2013-07-05 11:50:00,80.8,65.2,30.01,NW,318,4.0,4.0,59,0.00,,CLR,0.00,VWS V14.01,2013-07-05 15:50:00,
2013-07-05 11:55:00,81.1,64.9,30.01,WSW,252,8.0,8.0,58,0.00,,CLR,0.00,VWS V14.01,2013-07-05 15:55:00,
2013-07-05 12:00:00,80.9,64.8,30.01,WSW,252,5.0,7.0,58,0.00,,CLR,0.00,VWS V14.01,2013-07-05 16:00:00,
2013-07-05 12:05:00,81.0,64.8,30.01,WSW,245,6.0,7.0,58,0.00,,CLR,0.00,VWS V14.01,2013-07-05 16:05:00,
2013-07-05 12:10:00,80.9,64.8,30.01,NW,309,7.0,9.0,58,0.00,,CLR,0.00,VWS V14.01,2013-07-05 16:10:00,
2013-07-05 12:15:00,81.0,64.3,30.01,NW,319,5.0,8.0,57,0.00,,CLR,0.00,VWS V14.01,2013-07-05 16:15:00,
2013-07-05 12:20:00,81.2,64.0,30.01,WSW,246,9.0,9.0,56,0.00,,CLR,0.00,VWS V14.01,2013-07-05 16:20:00,
2013-07-05 12:25:00,81.4,63.7,30.01,WSW,255,8.0,8.0,55,0.00,,CLR,0.00,VWS V14.01,2013-07-05 16:25:00,
2013-07-05 12:30:00,81.7,64.0,30.01,SW,219,5.0,6.0,55,0.00,,CLR,0.00,VWS V14.01,2013-07-05 16:30:00,
2013-07-05 12:35:00,82.0,64.3,30.01,WNW,282,7.0,7.0,55,0.00,,CLR,0.00,VWS V14.01,2013-07-05 16:35:00,
2013-07-05 12:40:00,81.8,63.5,30.01,WNW,283,6.0,8.0,54,0.00,,CLR,0.00,VWS V14.01,2013-07-05 16:40:00,
2013-07-05 12:45:00,82.1,64.3,30.01,WSW,250,1.0,6.0,55,0.00,,CLR,0.00,VWS V14.01,2013-07-05 16:45:00,
2013-07-05 12:50:00,82.4,64.1,30.01,WSW,240,12.0,12.0,54,0.00,,CLR,0.00,VWS V14.01,2013-07-05 16:50:00,
2013-07-05 12:55:00,82.2,63.9,30.01,SSW,211,7.0,8.0,54,0.00,,CLR,0.00,VWS V14.01,2013-07-05 16:55:00,
2013-07-05 13:00:00,82.3,63.5,30.01,West,259,8.0,8.0,53,0.00,,CLR,0.00,VWS V14.01,2013-07-05 17:00:00,
2013-07-05 13:05:00,82.5,63.7,30.00,West,281,6.0,7.0,53,0.00,,CLR,0.00,VWS V14.01,2013-07-05 17:05:00,
2013-07-05 13:10:00,82.6,62.1,30.01,South,183,5.0,6.0,50,0.00,,CLR,0.00,VWS V14.01,2013-07-05 17:10:00,
2013-07-05 13:15:00,83.1,62.5,30.01,SSW,213,2.0,7.0,50,0.00,,CLR,0.00,VWS V14.01,2013-07-05 17:15:00,
2013-07-05 13:16:00,83.1,62.5,30.01,South,178,1.0,2.0,50,0.00,,CLR,0.00,VWS V14.01,2013-07-05 17:16:00,
2013-07-05 13:21:00,83.2,62.1,30.00,WNW,292,1.0,3.0,49,0.00,,CLR,0.00,VWS V14.01,2013-07-05 17:21:00,
2013-07-05 13:26:00,83.2,62.1,30.00,WNW,287,10.0,10.0,49,0.00,,CLR,0.00,VWS V14.01,2013-07-05 17:26:00,
2013-07-05 13:31:00,83.3,61.6,30.00,WNW,296,12.0,12.0,48,0.00,,CLR,0.00,VWS V14.01,2013-07-05 17:31:00,
2013-07-05 13:36:00,83.5,62.3,30.00,WNW,292,10.0,10.0,49,0.00,,CLR,0.00,VWS V14.01,2013-07-05 17:36:00,
2013-07-05 13:41:00,83.8,63.2,30.00,WSW,240,6.0,9.0,50,0.00,,CLR,0.00,VWS V14.01,2013-07-05 17:41:00,
2013-07-05 13:46:00,84.0,62.2,30.00,SSW,193,6.0,11.0,48,0.00,,CLR,0.00,VWS V14.01,2013-07-05 17:46:00,
2013-07-05 13:51:00,84.1,60.5,30.00,SW,228,10.0,10.0,45,0.00,,CLR,0.00,VWS V14.01,2013-07-05 17:51:00,
2013-07-05 13:56:00,84.2,61.8,30.00,WSW,237,9.0,11.0,47,0.00,,CLR,0.00,VWS V14.01,2013-07-05 17:56:00,
2013-07-05 14:01:00,84.2,61.2,30.00,WSW,258,7.0,10.0,46,0.00,,CLR,0.00,VWS V14.01,2013-07-05 18:01:00,
2013-07-05 14:06:00,84.4,62.6,30.00,SW,217,4.0,4.0,48,0.00,,CLR,0.00,VWS V14.01,2013-07-05 18:06:00,
2013-07-05 14:11:00,84.7,62.9,30.00,SW,226,9.0,13.0,48,0.00,,CLR,0.00,VWS V14.01,2013-07-05 18:11:00,
2013-07-05 14:16:00,84.8,61.7,30.00,NW,315,3.0,5.0,46,0.00,,CLR,0.00,VWS V14.01,2013-07-05 18:16:00,
2013-07-05 14:21:00,84.8,61.7,29.99,North,357,1.0,6.0,46,0.00,,CLR,0.00,VWS V14.01,2013-07-05 18:21:00,
2013-07-05 14:26:00,84.7,59.1,29.99,West,259,7.0,7.0,42,0.00,,CLR,0.00,VWS V14.01,2013-07-05 18:26:00,
2013-07-05 14:31:00,84.9,61.8,29.99,North,350,4.0,9.0,46,0.00,,CLR,0.00,VWS V14.01,2013-07-05 18:31:00,
2013-07-05 14:36:00,84.8,61.1,29.99,SW,217,2.0,3.0,45,0.00,,CLR,0.00,VWS V14.01,2013-07-05 18:36:00,
2013-07-05 14:41:00,85.0,61.9,29.99,SW,221,6.0,9.0,46,0.00,,CLR,0.00,VWS V14.01,2013-07-05 18:41:00,
2013-07-05 14:46:00,85.0,61.3,29.99,SW,221,5.0,12.0,45,0.00,,CLR,0.00,VWS V14.01,2013-07-05 18:46:00,
2013-07-05 14:51:00,85.2,62.1,29.99,WSW,237,9.0,9.0,46,0.00,,CLR,0.00,VWS V14.01,2013-07-05 18:51:00,
2013-07-05 14:56:00,85.1,61.4,29.99,WSW,244,4.0,6.0,45,0.00,,CLR,0.00,VWS V14.01,2013-07-05 18:56:00,
2013-07-05 15:01:00,84.9,61.2,29.99,WSW,253,9.0,13.0,45,0.00,,CLR,0.00,VWS V14.01,2013-07-05 19:01:00,
2013-07-05 15:06:00,84.7,61.7,29.99,WSW,245,3.0,4.0,46,0.00,,FEW075,0.00,VWS V14.01,2013-07-05 19:06:00,
2013-07-05 15:11:00,85.0,61.9,29.98,West,259,5.0,6.0,46,0.00,,FEW075,0.00,VWS V14.01,2013-07-05 19:11:00,
2013-07-05 15:16:00,84.9,61.2,29.98,SSW,207,1.0,3.0,45,0.00,,FEW075,0.00,VWS V14.01,2013-07-05 19:16:00,
2013-07-05 15:21:00,85.0,60.7,29.98,West,259,4.0,4.0,44,0.00,,FEW075,0.00,VWS V14.01,2013-07-05 19:21:00,
2013-07-05 15:26:00,85.2,60.8,29.98,WSW,238,2.0,3.0,44,0.00,,FEW075,0.00,VWS V14.01,2013-07-05 19:26:00,
2013-07-05 15:31:00,85.4,60.4,29.98,WSW,250,7.0,10.0,43,0.00,,FEW075,0.00,VWS V14.01,2013-07-05 19:31:00,
2013-07-05 15:36:00,85.4,59.7,29.98,SSW,200,10.0,10.0,42,0.00,,FEW075,0.00,VWS V14.01,2013-07-05 19:36:00,
2013-07-05 15:42:00,85.0,60.7,29.98,NW,321,2.0,5.0,44,0.00,,FEW075,0.00,VWS V14.01,2013-07-05 19:42:00,
2013-07-05 15:47:00,85.4,61.0,29.97,North,351,5.0,7.0,44,0.00,,FEW075,0.00,VWS V14.01,2013-07-05 19:47:00,
2013-07-05 15:52:00,85.8,61.4,29.97,West,281,3.0,3.0,44,0.00,,FEW075,0.00,VWS V14.01,2013-07-05 19:52:00,
2013-07-05 15:57:00,86.0,61.6,29.97,SW,235,4.0,4.0,44,0.00,,FEW075,0.00,VWS V14.01,2013-07-05 19:57:00,
2013-07-05 16:02:00,86.1,61.7,29.97,SSW,212,5.0,9.0,44,0.00,,FEW075,0.00,VWS V14.01,2013-07-05 20:02:00,
2013-07-05 16:07:00,85.6,61.2,29.97,WSW,252,7.0,7.0,44,0.00,,CLR,0.00,VWS V14.01,2013-07-05 20:07:00,
2013-07-05 16:12:00,85.5,61.8,29.97,SW,228,6.0,8.0,45,0.00,,CLR,0.00,VWS V14.01,2013-07-05 20:12:00,
2013-07-05 16:17:00,85.4,61.7,29.97,WSW,255,12.0,12.0,45,0.00,,CLR,0.00,VWS V14.01,2013-07-05 20:17:00,
2013-07-05 16:22:00,85.4,61.0,29.96,SW,221,9.0,12.0,44,0.00,,CLR,0.00,VWS V14.01,2013-07-05 20:22:00,
2013-07-05 16:27:00,85.2,60.2,29.96,WNW,290,3.0,7.0,43,0.00,,CLR,0.00,VWS V14.01,2013-07-05 20:27:00,
2013-07-05 16:32:00,85.4,60.4,29.97,WNW,290,5.0,6.0,43,0.00,,CLR,0.00,VWS V14.01,2013-07-05 20:32:00,
2013-07-05 16:37:00,85.3,60.9,29.96,WSW,237,10.0,13.0,44,0.00,,CLR,0.00,VWS V14.01,2013-07-05 20:37:00,
2013-07-05 16:42:00,85.3,61.6,29.96,West,261,12.0,13.0,45,0.00,,CLR,0.00,VWS V14.01,2013-07-05 20:42:00,
2013-07-05 16:47:00,85.1,61.4,29.96,WNW,288,9.0,10.0,45,0.00,,CLR,0.00,VWS V14.01,2013-07-05 20:47:00,
2013-07-05 16:52:00,84.8,61.1,29.96,NW,322,2.0,2.0,45,0.00,,CLR,0.00,VWS V14.01,2013-07-05 20:52:00,
2013-07-05 16:57:00,85.1,62.6,29.96,NNW,331,3.0,3.0,47,0.00,,CLR,0.00,VWS V14.01,2013-07-05 20:57:00,
2013-07-05 17:02:00,85.3,62.2,29.96,West,277,2.0,4.0,46,0.00,,CLR,0.00,VWS V14.01,2013-07-05 21:02:00,
2013-07-05 17:07:00,85.1,61.4,29.96,West,273,2.0,3.0,45,0.00,,SCT085,0.00,VWS V14.01,2013-07-05 21:07:00,
2013-07-05 17:12:00,84.9,62.4,29.96,SSW,213,6.0,8.0,47,0.00,,SCT085,0.00,VWS V14.01,2013-07-05 21:12:00,
2013-07-05 17:18:00,84.6,61.6,29.96,NNW,328,8.0,8.0,46,0.00,,SCT085,0.00,VWS V14.01,2013-07-05 21:18:00,
2013-07-05 17:23:00,84.4,62.6,29.96,SW,230,7.0,9.0,48,0.00,,SCT085,0.00,VWS V14.01,2013-07-05 21:23:00,
2013-07-05 17:28:00,84.3,62.5,29.96,WSW,238,9.0,10.0,48,0.00,,SCT085,0.00,VWS V14.01,2013-07-05 21:28:00,
2013-07-05 17:33:00,84.3,61.9,29.96,SW,221,8.0,8.0,47,0.00,,SCT085,0.00,VWS V14.01,2013-07-05 21:33:00,
2013-07-05 17:38:00,84.1,61.7,29.96,West,281,4.0,4.0,47,0.00,,SCT085,0.00,VWS V14.01,2013-07-05 21:38:00,
2013-07-05 17:43:00,84.1,61.7,29.96,WNW,288,6.0,7.0,47,0.00,,SCT085,0.00,VWS V14.01,2013-07-05 21:43:00,
2013-07-05 17:48:00,83.9,61.5,29.95,NW,309,3.0,4.0,47,0.00,,SCT085,0.00,VWS V14.01,2013-07-05 21:48:00,
2013-07-05 17:53:00,83.9,61.5,29.95,SW,236,9.0,9.0,47,0.00,,SCT085,0.00,VWS V14.01,2013-07-05 21:53:00,
2013-07-05 17:58:00,83.6,60.7,29.96,WSW,244,3.0,8.0,46,0.00,,SCT085,0.00,VWS V14.01,2013-07-05 21:58:00,
2013-07-05 18:03:00,83.2,59.7,29.95,SW,234,6.0,8.0,45,0.00,,SCT075,0.00,VWS V14.01,2013-07-05 22:03:00,
2013-07-05 18:08:00,82.8,59.9,29.95,WNW,282,4.0,4.0,46,0.00,,SCT075,0.00,VWS V14.01,2013-07-05 22:08:00,
2013-07-05 18:13:00,82.5,60.3,29.95,WNW,286,6.0,6.0,47,0.00,,SCT075,0.00,VWS V14.01,2013-07-05 22:13:00,
2013-07-05 18:18:00,82.6,60.3,29.95,West,270,8.0,8.0,47,0.00,,SCT075,0.00,VWS V14.01,2013-07-05 22:18:00,
2013-07-05 18:23:00,82.7,59.8,29.95,West,263,6.0,6.0,46,0.00,,SCT075,0.00,VWS V14.01,2013-07-05 22:23:00,
2013-07-05 18:28:00,82.7,59.8,29.95,SW,226,10.0,14.0,46,0.00,,SCT075,0.00,VWS V14.01,2013-07-05 22:28:00,
2013-07-05 18:33:00,82.5,59.7,29.95,NW,315,4.0,7.0,46,0.00,,SCT075,0.00,VWS V14.01,2013-07-05 22:33:00,
2013-07-05 18:39:00,82.3,60.1,29.95,SW,233,7.0,11.0,47,0.00,,SCT075,0.00,VWS V14.01,2013-07-05 22:39:00,
2013-07-05 18:44:00,82.1,59.9,29.95,WSW,242,10.0,10.0,47,0.00,,SCT075,0.00,VWS V14.01,2013-07-05 22:44:00,
2013-07-05 18:49:00,81.9,59.7,29.95,SW,222,5.0,9.0,47,0.00,,SCT075,0.00,VWS V14.01,2013-07-05 22:49:00,
2013-07-05 18:54:00,81.8,60.2,29.95,SSW,201,3.0,7.0,48,0.00,,SCT075,0.00,VWS V14.01,2013-07-05 22:54:00,
2013-07-05 18:59:00,81.8,59.6,29.95,WSW,240,8.0,8.0,47,0.00,,SCT075,0.00,VWS V14.01,2013-07-05 22:59:00,
2013-07-05 19:04:00,81.6,60.0,29.95,WSW,244,5.0,5.0,48,0.00,,CLR,0.00,VWS V14.01,2013-07-05 23:04:00,
2013-07-05 19:09:00,81.5,59.9,29.95,WNW,292,3.0,3.0,48,0.00,,CLR,0.00,VWS V14.01,2013-07-05 23:09:00,
2013-07-05 19:14:00,81.2,59.7,29.95,SSW,202,8.0,10.0,48,0.00,,CLR,0.00,VWS V14.01,2013-07-05 23:14:00,
2013-07-05 19:19:00,80.8,59.9,29.95,West,275,6.0,7.0,49,0.00,,CLR,0.00,VWS V14.01,2013-07-05 23:19:00,
2013-07-05 19:24:00,80.6,60.3,29.95,SW,221,7.0,7.0,50,0.00,,CLR,0.00,VWS V14.01,2013-07-05 23:24:00,
2013-07-05 19:29:00,80.2,59.9,29.95,NW,314,6.0,12.0,50,0.00,,CLR,0.00,VWS V14.01,2013-07-05 23:29:00,
2013-07-05 19:34:00,80.0,60.3,29.95,SSW,210,2.0,3.0,51,0.00,,CLR,0.00,VWS V14.01,2013-07-05 23:34:00,
2013-07-05 19:39:00,79.7,60.0,29.95,West,271,2.0,3.0,51,0.00,,CLR,0.00,VWS V14.01,2013-07-05 23:39:00,
2013-07-05 19:44:00,79.5,60.3,29.95,WNW,294,5.0,8.0,52,0.00,,CLR,0.00,VWS V14.01,2013-07-05 23:44:00,
2013-07-05 19:49:00,79.1,60.5,29.95,WSW,249,9.0,10.0,53,0.00,,CLR,0.00,VWS V14.01,2013-07-05 23:49:00,
2013-07-05 19:54:00,78.8,60.2,29.95,SW,226,3.0,3.0,53,0.00,,CLR,0.00,VWS V14.01,2013-07-05 23:54:00,
2013-07-05 19:59:00,78.5,60.0,29.96,WSW,249,1.0,2.0,53,0.00,,CLR,0.00,VWS V14.01,2013-07-05 23:59:00,
2013-07-05 20:04:00,78.2,60.2,29.96,WSW,241,5.0,5.0,54,0.00,,CLR,0.00,VWS V14.01,2013-07-06 00:04:00,
2013-07-05 20:09:00,77.9,60.5,29.96,WSW,257,2.0,5.0,55,0.00,,CLR,0.00,VWS V14.01,2013-07-06 00:09:00,
2013-07-05 20:14:00,77.6,60.7,29.96,SW,215,4.0,6.0,56,0.00,,CLR,0.00,VWS V14.01,2013-07-06 00:14:00,
2013-07-05 20:19:00,77.3,60.4,29.96,WSW,239,4.0,11.0,56,0.00,,CLR,0.00,VWS V14.01,2013-07-06 00:19:00,
2013-07-05 20:24:00,76.9,60.5,29.96,SW,231,3.0,6.0,57,0.00,,CLR,0.00,VWS V14.01,2013-07-06 00:24:00,
2013-07-05 20:29:00,76.4,60.5,29.96,SW,226,4.0,10.0,58,0.00,,CLR,0.00,VWS V14.01,2013-07-06 00:29:00,
2013-07-05 20:34:00,76.0,61.1,29.96,West,263,2.0,6.0,60,0.00,,CLR,0.00,VWS V14.01,2013-07-06 00:34:00,
2013-07-05 20:39:00,75.6,60.8,29.96,SW,236,3.0,4.0,60,0.00,,CLR,0.00,VWS V14.01,2013-07-06 00:39:00,
2013-07-05 20:44:00,75.2,60.8,29.96,WNW,300,10.0,12.0,61,0.00,,CLR,0.00,VWS V14.01,2013-07-06 00:44:00,
2013-07-05 20:49:00,74.9,61.0,29.96,NE,48,3.0,4.0,62,0.00,,CLR,0.00,VWS V14.01,2013-07-06 00:49:00,
2013-07-05 20:54:00,74.7,60.8,29.96,West,262,1.0,1.0,62,0.00,,CLR,0.00,VWS V14.01,2013-07-06 00:54:00,
2013-07-05 20:59:00,74.4,60.5,29.96,SW,225,2.0,3.0,62,0.00,,CLR,0.00,VWS V14.01,2013-07-06 00:59:00,
2013-07-05 21:04:00,74.2,60.8,29.96,West,260,4.0,4.0,63,0.00,,BKN100,0.00,VWS V14.01,2013-07-06 01:04:00,
2013-07-05 21:09:00,74.0,60.6,29.96,WNW,297,3.0,4.0,63,0.00,,BKN100,0.00,VWS V14.01,2013-07-06 01:09:00,
2013-07-05 21:14:00,73.8,60.9,29.96,SSW,207,1.0,2.0,64,0.00,,BKN100,0.00,VWS V14.01,2013-07-06 01:14:00,
2013-07-05 21:19:00,73.6,60.7,29.96,WNW,292,1.0,2.0,64,0.00,,BKN100,0.00,VWS V14.01,2013-07-06 01:19:00,
2013-07-05 21:24:00,73.4,60.5,29.96,WNW,287,1.0,1.0,64,0.00,,BKN100,0.00,VWS V14.01,2013-07-06 01:24:00,
2013-07-05 21:29:00,73.1,60.2,29.96,North,352,1.0,1.0,64,0.00,,BKN100,0.00,VWS V14.01,2013-07-06 01:29:00,
2013-07-05 21:34:00,72.9,60.5,29.96,SW,228,0.0,0.0,65,0.00,,BKN100,0.00,VWS V14.01,2013-07-06 01:34:00,
2013-07-05 21:39:00,72.5,60.1,29.96,ESE,113,2.0,2.0,65,0.00,,BKN100,0.00,VWS V14.01,2013-07-06 01:39:00,
2013-07-05 21:44:00,72.2,60.2,29.96,SSW,197,1.0,1.0,66,0.00,,BKN100,0.00,VWS V14.01,2013-07-06 01:44:00,
2013-07-05 21:49:00,72.0,60.0,29.96,WSW,251,1.0,1.0,66,0.00,,BKN100,0.00,VWS V14.01,2013-07-06 01:49:00,
2013-07-05 21:54:00,71.7,59.8,29.96,West,265,1.0,3.0,66,0.00,,BKN100,0.00,VWS V14.01,2013-07-06 01:54:00,
2013-07-05 21:59:00,71.6,59.7,29.96,SSW,213,4.0,4.0,66,0.00,,BKN100,0.00,VWS V14.01,2013-07-06 01:59:00,
2013-07-05 22:04:00,71.6,59.7,29.96,West,271,4.0,4.0,66,0.00,,CLR,0.00,VWS V14.01,2013-07-06 02:04:00,
2013-07-05 22:09:00,71.7,59.8,29.96,WSW,240,2.0,2.0,66,0.00,,CLR,0.00,VWS V14.01,2013-07-06 02:09:00,
2013-07-05 22:10:00,71.7,59.8,29.96,SW,232,5.0,5.0,66,0.00,,CLR,0.00,VWS V14.01,2013-07-06 02:10:00,
2013-07-05 22:15:00,71.7,59.8,29.96,SSW,195,1.0,2.0,66,0.00,,CLR,0.00,VWS V14.01,2013-07-06 02:15:00,
2013-07-05 22:16:00,71.8,59.8,29.96,WSW,251,3.0,6.0,66,0.00,,CLR,0.00,VWS V14.01,2013-07-06 02:16:00,
2013-07-05 22:22:00,71.8,59.8,29.96,WSW,238,1.0,2.0,66,0.00,,CLR,0.00,VWS V14.01,2013-07-06 02:22:00,
2013-07-05 22:27:00,71.9,59.9,29.96,SW,230,4.0,4.0,66,0.00,,CLR,0.00,VWS V14.01,2013-07-06 02:27:00,
2013-07-05 22:32:00,71.9,59.5,29.96,SW,221,5.0,6.0,65,0.00,,CLR,0.00,VWS V14.01,2013-07-06 02:32:00,
2013-07-05 22:37:00,72.0,59.6,29.96,WSW,242,2.0,2.0,65,0.00,,CLR,0.00,VWS V14.01,2013-07-06 02:37:00,
2013-07-05 22:42:00,72.0,59.6,29.96,SW,215,2.0,3.0,65,0.00,,CLR,0.00,VWS V14.01,2013-07-06 02:42:00,
2013-07-05 22:47:00,72.0,59.6,29.96,SSW,205,4.0,4.0,65,0.00,,CLR,0.00,VWS V14.01,2013-07-06 02:47:00,
2013-07-05 22:52:00,72.0,59.6,29.96,West,266,4.0,4.0,65,0.00,,CLR,0.00,VWS V14.01,2013-07-06 02:52:00,
2013-07-05 22:57:00,72.1,59.7,29.97,SW,226,1.0,2.0,65,0.00,,CLR,0.00,VWS V14.01,2013-07-06 02:57:00,
2013-07-05 23:02:00,72.0,59.6,29.97,South,183,1.0,3.0,65,0.00,,CLR,0.00,VWS V14.01,2013-07-06 03:02:00,
2013-07-05 23:07:00,71.9,59.5,29.97,SSW,207,2.0,2.0,65,0.00,,SCT110,0.00,VWS V14.01,2013-07-06 03:07:00,
2013-07-05 23:12:00,71.8,59.4,29.96,SW,218,2.0,2.0,65,0.00,,SCT110,0.00,VWS V14.01,2013-07-06 03:12:00,
2013-07-05 23:17:00,71.6,59.7,29.96,WSW,248,2.0,4.0,66,0.00,,SCT110,0.00,VWS V14.01,2013-07-06 03:17:00,
2013-07-05 23:23:00,71.5,59.6,29.96,SSW,200,5.0,5.0,66,0.00,,SCT110,0.00,VWS V14.01,2013-07-06 03:23:00,
2013-07-05 23:28:00,71.4,59.5,29.96,SSW,203,2.0,3.0,66,0.00,,SCT110,0.00,VWS V14.01,2013-07-06 03:28:00,
2013-07-05 23:32:00,71.2,59.3,29.97,SSW,200,1.0,2.0,66,0.00,,SCT110,0.00,VWS V14.01,2013-07-06 03:32:00,
2013-07-05 23:38:00,71.0,59.5,29.97,SE,142,2.0,2.0,67,0.00,,SCT110,0.00,VWS V14.01,2013-07-06 03:38:00,
2013-07-05 23:43:00,70.6,60.0,29.97,SW,235,2.0,2.0,69,0.00,,SCT110,0.00,VWS V14.01,2013-07-06 03:43:00,
2013-07-05 23:48:00,70.0,59.8,29.96,SW,227,1.0,2.0,70,0.00,,SCT110,0.00,VWS V14.01,2013-07-06 03:48:00,
2013-07-05 23:53:00,69.4,59.6,29.97,SE,138,1.0,2.0,71,0.00,,SCT110,0.00,VWS V14.01,2013-07-06 03:53:00,
2013-07-05 23:58:00,68.9,59.5,29.96,ESE,122,1.0,3.0,72,0.00,,SCT110,0.00,VWS V14.01,2013-07-06 03:58:00,